SL-14 DEB, 45339

Orbit data source: Space-Track

SL-14 DEB, 45339 is space debris in LEO originally from a launch on Thu, 15 Aug 1991 UTC launched from the Plesetsk Missile And Space Complex (PKMTR). Debris objects in space refer to the collection of defunct objects orbiting the Earth. Examples of debris include non-operational satellites, rocket bodies, and fragments generated from explosions, collisions, or faulty payload assembly.

Loading next visibility...
SL-14 DEB details
Identifier
45339, 1991-056CD
Orbit
LEO
Last TLE update15 hours ago
Origin
Flag of CISRosgidromet (CIS)
ManufacturerUnknown
MissionSpacecraft
Bus & MotorUnknown
MassUnknown
Launch date (UTC)
1991-08-15 (33 years ago)
Launch vehicleUnknown
Launch site
Plesetsk Missile And Space Complex (PKMTR)
Object type
Payload
Rocket body
Debris
Shape & HBRUnknown
Radar Cross SectionSmall (<0.1 m²)

Expand to show TLE details & history

TLE from 15 hours ago
0 SL-14 DEB
1 45339U 91056CD  24348.52803277  .00011324  00000-0  13287-1 0  9993
2 45339  82.5035  87.3049 0106589 108.0686 253.2110 13.65700732235590
Epoch: 2024-12-13T12:40Z
Definitive object data (Epoch: 2024-12-13T12:40:22.031Z)
Latitude-0.00004°
Longitude174.52038°
Altitude1,041.455 km
Speed7.319 km/s
True Right ascension05h 49m 13s
True Declination0° 00' 00"
Sunlit
Object was in full shadow at TLE epoch
Visualization TLE readout
Latitude20.21583°
Longitude-8.72123°
Altitude969.759 km
Speed7.392 km/s
Apparent Right ascension16h 09m 09s
Apparent Declination-8° 18' 33"
Sunlit
Object is in daylight
Visualization observer readout
Local Sidereal Time02:03:12
Azimuth309.798° NW
Elevation-47.723°
Doppler factor1
Orbital elements
Apogee altitude1,090.998 km
Perigee altitude933.452 km
Semi-major axis7,390.362 km
Eccentricity0.0106589
Inclination82.5035°
RAAN87.3049°
Arg. of periapsis108.0686°
True anomaly252.04621°
Mean anomaly253.211°
Eccentric anomaly252.62815°
Mean motion3.41621 °/min
BSTAR0.013287
Orbital period105.38 mins
Loading maneuver chart data...
Loading historical data...
Loading historical data...
Loading historical data...
Loading historical data...
Loading historical data...
Loading historical data...
Loading historical data...

SL-14 DEB Visibility forecast

Observer location: undefined°, undefined

Span
Click to sort rows by Start time (UTC) header in descending order
Start Az.
Max El. time (UTC)
Max El. Az.
Max El.
End time (UTC)
End Az.
9 mins2024-12-14 06:22:27.901Z134.364° SE2024-12-14 06:27:27.901Z79.223° E21.827°2024-12-14 06:31:27.901Z36.872° NE
10 mins2024-12-14 08:08:27.901Z214.175° SW2024-12-14 08:12:27.901Z268.423° W36.429°2024-12-14 08:18:27.901Z355.044° N
7 mins2024-12-14 17:24:27.901Z31.411° NE2024-12-14 17:27:27.901Z67.05° ENE20.319°2024-12-14 17:31:27.901Z113.621° SE
9 mins2024-12-14 19:10:27.901Z334.885° NNW2024-12-14 19:14:27.901Z262.279° W38.133°2024-12-14 19:19:27.901Z195.795° SSW
|